PulseSat

PulseSat

GSAT0103 (GALILEO-FM3)

Last updated on Feb. 15, 2019, 3:04 a.m. UTC

1 38857U 12055A   19044.78346975  .00000033  00000-0  00000+0 0  9996
2 38857  54.9235 175.2720 0002270 244.2125 115.7285  1.70473598 39461
UTC
Height (km)
Latitude
Longitude
Inclination
Orbital Period

Next 30 passes for location: Hong Kong

Rise time Rise Azimuth (degrees) Set time Set Azimuth (degrees) Duration Max altitude (degrees)

No matching passes for this satellites

PulseSat

PulseSat is the new satellites software and hardware trackering solution by Pulsely.
Satellite Two Line Element Set source: US Air Force Space Command

Download PulseSat for iOS
© 2017 Pulsely Limited